Location: Ostrava
(49.8330°N, 18.2830°E)
Time: 10:38:06
(UTC+02:00)

Iridium 7 - Visible Passes

Search period start: 24 April 2018 00:00
Search period end: 04 May 2018 00:00
Orbit: 776 x 779 km, 86.4° (Epoch: 23 April)

Date Brightness Start Highest point End Pass type
(mag) Time Alt. Az. Time Alt. Az. Time Alt. Az.
24 Apr 7.4 21:43:28 13° E 21:44:38 13° ENE 21:47:06 10° NE visible
24 Apr 5.4 23:23:55 71° S 23:24:30 86° E 23:29:46 10° N visible
25 Apr 7.7 01:04:22 14° W 01:06:00 16° WNW 01:09:05 10° NNW visible
25 Apr 5.8 22:50:13 46° ESE 22:51:01 51° E 22:56:04 10° NNE visible
26 Apr 7.1 00:30:40 23° W 00:32:02 25° WNW 00:36:20 10° NNW visible
26 Apr 6.5 22:16:30 28° ESE 22:17:38 30° E 22:22:09 10° NNE visible
26 Apr 6.4 23:56:57 35° WSW 23:58:13 41° WNW 00:03:10 10° N visible
27 Apr 7.1 21:42:46 16° E 21:44:24 18° ENE 21:47:53 10° NE visible
27 Apr 5.6 23:23:13 49° SSW 23:24:31 70° W 23:29:46 10° N visible
28 Apr 8.0 01:04:40 10° W 01:06:18 11° WNW 01:07:57 10° NW visible
28 Apr 7.6 21:10:04 10° E 21:11:15 11° ENE 21:12:26 10° ENE visible
28 Apr 5.5 22:49:29 46° SSE 22:50:58 70° E 22:56:11 10° N visible
29 Apr 7.6 00:29:56 15° WSW 00:32:16 19° WNW 00:35:56 10° NNW visible
29 Apr 6.1 22:15:44 31° SE 22:17:30 41° E 22:22:23 10° NNE visible
29 Apr 7.0 23:56:11 23° WSW 23:58:21 31° WNW 00:02:58 10° NNW visible
30 Apr 6.8 21:41:58 19° ESE 21:44:11 25° E 21:48:22 10° NNE visible
30 Apr 6.1 23:22:25 31° SW 23:24:35 51° W 23:29:41 10° N visible
01 May 7.3 21:08:11 10° ESE 21:10:59 15° ENE 21:13:51 10° NE visible
01 May 5.5 22:48:39 35° S 22:50:57 86° W 22:56:13 10° N visible
02 May 8.0 00:29:50 10° W 00:32:32 14° WNW 00:35:15 10° NW visible
02 May 5.7 22:14:50 28° SSE 22:17:25 56° E 22:22:32 10° NNE visible
02 May 7.4 23:55:17 13° WSW 23:58:32 23° WNW 00:02:40 10° NNW visible
03 May 6.4 21:41:02 19° SE 21:44:02 33° E 21:48:41 10° NNE visible
03 May 6.7 23:21:28 19° SW 23:24:42 37° WNW 23:29:33 10° N visible
